Location: El Álamo
(40.2307°N, 3.9945°W)
Time: 04:26:23
(UTC+00:00)

Cosmos 1400 Rocket - Pass Details

Date: 19 May 2025
Orbit: 484 x 519 km, 81.1° (Epoch: 23 June)

Event Time Altitude Azimuth Distance (km) Brightness Sun altitude
Exits shadow 21:05:09 - 202° (SSW) 2,124 5.6 -15.7°
Reaches altitude 10° 21:06:15 10° 206° (SSW) 1,678 5.1 -15.8°
Maximum altitude 21:09:48 48° 282° (WNW) 643 3.5 -16.3°
Drops below altitude 10° 21:13:23 10° 358° (N) 1,678 6.0 -16.8°
Sets 21:15:32 0° 4° (N) 2,561 6.9 -17.1°
